LOT2CF EDDH-EPWA

Flight info

Callsign LOT2CF
Flight time 1h 8m
Altitude 35000
Route RAMAR6G/33 RAMAR DCT PABMI DCT RADEL DCT ALUKA DCT DENKO P851 BIMPA
Aircraft E195/M-SDE3GILORVW/S

Departure

Time 2026-05-04 13:29
Airport Hamburg Helmut Schmidt Airport (EDDH)

Arrival

Time 2026-05-04 14:37
Airport Warsaw Chopin Airport (EPWA)
Time Latitude Longitude Altitude Speed Heading
2026-05-04 13:29 53.83352 10.45539 10332 ft 323 kts 103°
2026-05-04 13:29 53.82850 10.49351 10727 ft 333 kts 104°
2026-05-04 13:30 53.82342 10.53191 11313 ft 337 kts 105°
2026-05-04 13:30 53.81808 10.57081 11902 ft 341 kts 105°
2026-05-04 13:30 53.81267 10.61015 12503 ft 344 kts 105°
2026-05-04 13:30 53.80659 10.64902 13084 ft 347 kts 110°
2026-05-04 13:31 53.79798 10.68738 13667 ft 350 kts 115°
2026-05-04 13:31 53.78812 10.72522 14230 ft 353 kts 118°
2026-05-04 13:31 53.77609 10.76187 14766 ft 353 kts 126°
2026-05-04 13:31 53.76341 10.79712 15298 ft 357 kts 125°
2026-05-04 13:32 53.75015 10.83302 15836 ft 360 kts 127°
2026-05-04 13:32 53.73556 10.86740 16358 ft 361 kts 130°
2026-05-04 13:32 53.72142 10.90291 16899 ft 366 kts 128°
2026-05-04 13:32 53.70691 10.93842 17442 ft 369 kts 129°
2026-05-04 13:33 53.69231 10.97430 17996 ft 372 kts 129°
2026-05-04 13:33 53.67754 11.01041 18531 ft 375 kts 130°
2026-05-04 13:33 53.66262 11.04686 19054 ft 378 kts 130°
2026-05-04 13:33 53.64759 11.08351 19557 ft 381 kts 130°
2026-05-04 13:34 53.63268 11.11984 20067 ft 384 kts 130°
2026-05-04 13:34 53.61743 11.15694 20578 ft 387 kts 130°
2026-05-04 13:34 53.60203 11.19434 21058 ft 390 kts 130°
2026-05-04 13:34 53.58651 11.23201 21530 ft 393 kts 130°
2026-05-04 13:35 53.57085 11.26992 21971 ft 396 kts 131°
2026-05-04 13:35 53.53917 11.34645 22844 ft 401 kts 131°
2026-05-04 13:35 53.52315 11.38510 23273 ft 404 kts 131°
2026-05-04 13:36 53.50699 11.42399 23674 ft 407 kts 131°
2026-05-04 13:36 53.49068 11.46322 24049 ft 409 kts 131°
2026-05-04 13:36 53.47431 11.50251 24437 ft 412 kts 131°
2026-05-04 13:36 53.45782 11.54202 24830 ft 414 kts 131°
2026-05-04 13:37 53.44116 11.58185 25219 ft 417 kts 131°
2026-05-04 13:37 53.42468 11.62124 25578 ft 419 kts 131°
2026-05-04 13:37 53.40814 11.66167 25935 ft 423 kts 128°
2026-05-04 13:37 53.39834 11.69095 26154 ft 428 kts 122°
2026-05-04 13:38 53.37989 11.74955 26590 ft 431 kts 123°
2026-05-04 13:38 53.36614 11.79421 26917 ft 433 kts 123°
2026-05-04 13:38 53.35220 11.83914 27232 ft 435 kts 123°
2026-05-04 13:38 53.33824 11.88423 27551 ft 436 kts 123°
2026-05-04 13:39 53.32422 11.92938 27853 ft 438 kts 123°
2026-05-04 13:39 53.31012 11.97470 28168 ft 440 kts 123°
2026-05-04 13:39 53.29594 12.02018 28485 ft 442 kts 123°
2026-05-04 13:39 53.28169 12.06579 28795 ft 443 kts 123°
2026-05-04 13:40 53.26749 12.11113 29096 ft 445 kts 123°
2026-05-04 13:40 53.25299 12.15739 29399 ft 447 kts 123°
2026-05-04 13:40 53.23854 12.20336 29685 ft 449 kts 123°
2026-05-04 13:40 53.22415 12.24902 29848 ft 453 kts 123°
2026-05-04 13:41 53.20936 12.29589 29956 ft 458 kts 123°
2026-05-04 13:41 53.19450 12.34296 30243 ft 458 kts 123°
2026-05-04 13:41 53.17960 12.38997 30505 ft 458 kts 123°
2026-05-04 13:42 53.14983 12.48370 31022 ft 457 kts 123°
2026-05-04 13:42 53.13491 12.53051 31268 ft 457 kts 123°
2026-05-04 13:42 53.12001 12.57722 31518 ft 457 kts 123°
2026-05-04 13:42 53.10506 12.62392 31747 ft 457 kts 123°
2026-05-04 13:43 53.09013 12.67055 32002 ft 456 kts 124°
2026-05-04 13:43 53.07516 12.71715 32240 ft 456 kts 124°
2026-05-04 13:43 53.06017 12.76375 32477 ft 456 kts 124°
2026-05-04 13:43 53.04517 12.81031 32723 ft 456 kts 124°
2026-05-04 13:44 53.03040 12.85605 32972 ft 455 kts 124°
2026-05-04 13:44 53.01541 12.90238 33201 ft 455 kts 124°
2026-05-04 13:44 53.00039 12.94873 33454 ft 455 kts 124°
2026-05-04 13:44 52.98538 12.99496 33670 ft 455 kts 124°
2026-05-04 13:45 52.97036 13.04114 33892 ft 455 kts 124°
2026-05-04 13:45 52.95718 13.08907 34078 ft 461 kts 114°
2026-05-04 13:45 52.94859 13.14070 34268 ft 466 kts 104°
2026-05-04 13:45 52.94497 13.19436 34454 ft 469 kts 95°
2026-05-04 13:46 52.94404 13.24841 34654 ft 468 kts 96°
2026-05-04 13:46 52.94200 13.30180 34812 ft 458 kts 96°
2026-05-04 13:46 52.94013 13.35357 34863 ft 442 kts 97°
2026-05-04 13:46 52.93808 13.40453 34915 ft 446 kts 96°
2026-05-04 13:47 52.93399 13.50753 34958 ft 455 kts 96°
2026-05-04 13:47 52.92968 13.61329 34962 ft 465 kts 96°
2026-05-04 13:48 52.92519 13.72144 34960 ft 472 kts 96°
2026-05-04 13:48 52.92061 13.82937 34939 ft 468 kts 97°
2026-05-04 13:49 52.91594 13.93708 34955 ft 469 kts 97°
2026-05-04 13:49 52.91118 14.04463 34943 ft 468 kts 97°
2026-05-04 13:50 52.90632 14.15215 34939 ft 468 kts 97°
2026-05-04 13:50 52.90140 14.25970 34951 ft 467 kts 97°
2026-05-04 13:51 52.89632 14.36647 34944 ft 471 kts 97°
2026-05-04 13:51 52.89102 14.47580 34947 ft 480 kts 97°
2026-05-04 13:52 52.88271 14.64338 34942 ft 493 kts 97°
2026-05-04 13:53 52.87694 14.75719 34940 ft 495 kts 97°
2026-05-04 13:53 52.87108 14.87033 34944 ft 493 kts 97°
2026-05-04 13:54 52.86214 15.03915 34946 ft 492 kts 97°
2026-05-04 13:55 52.85292 15.20841 34945 ft 492 kts 97°
2026-05-04 13:55 52.84349 15.37735 34936 ft 491 kts 97°
2026-05-04 13:56 52.83817 15.47073 34937 ft 491 kts 98°
2026-05-04 13:57 52.82839 15.63935 34937 ft 490 kts 98°
2026-05-04 13:58 52.81372 15.86336 34941 ft 489 kts 101°
2026-05-04 13:58 52.79818 16.02985 34937 ft 489 kts 102°
2026-05-04 13:59 52.78746 16.14073 34935 ft 489 kts 102°
2026-05-04 14:00 52.77342 16.30775 34940 ft 489 kts 100°
2026-05-04 14:00 52.75898 16.47465 34941 ft 489 kts 101°
2026-05-04 14:01 52.74925 16.58594 34931 ft 490 kts 101°
2026-05-04 14:02 52.73453 16.75202 34942 ft 490 kts 101°
2026-05-04 14:02 52.72453 16.86338 34942 ft 490 kts 101°
2026-05-04 14:03 52.71442 16.97464 34937 ft 491 kts 101°
2026-05-04 14:03 52.70419 17.08606 34938 ft 491 kts 101°
2026-05-04 14:04 52.68868 17.25287 34924 ft 491 kts 101°
2026-05-04 14:04 52.67824 17.36374 34934 ft 491 kts 101°
2026-05-04 14:05 52.66230 17.53072 34919 ft 491 kts 101°
2026-05-04 14:06 52.65156 17.64188 34932 ft 490 kts 101°
2026-05-04 14:06 52.64072 17.75282 34919 ft 490 kts 101°
2026-05-04 14:07 52.62987 17.86286 34930 ft 489 kts 101°
2026-05-04 14:07 52.61886 17.97339 34925 ft 488 kts 101°
2026-05-04 14:08 52.60777 18.08365 34923 ft 488 kts 101°
2026-05-04 14:08 52.60217 18.13892 34390 ft 490 kts 101°
2026-05-04 14:08 52.59657 18.19399 33810 ft 484 kts 101°
2026-05-04 14:08 52.59102 18.24810 33173 ft 478 kts 101°
2026-05-04 14:09 52.58005 18.35458 31944 ft 465 kts 101°
2026-05-04 14:09 52.57465 18.40665 31357 ft 460 kts 101°
2026-05-04 14:10 52.56393 18.50923 30223 ft 456 kts 101°
2026-05-04 14:10 52.55850 18.56102 29630 ft 462 kts 101°
2026-05-04 14:10 52.55313 18.61187 29013 ft 460 kts 101°
2026-05-04 14:10 52.54757 18.66443 28387 ft 454 kts 101°
2026-05-04 14:11 52.54214 18.71523 27774 ft 448 kts 101°
2026-05-04 14:11 52.53160 18.81381 26583 ft 435 kts 102°
2026-05-04 14:11 52.52634 18.86245 26007 ft 429 kts 101°
2026-05-04 14:12 52.52115 18.91043 25442 ft 425 kts 102°
2026-05-04 14:12 52.51597 18.95803 24888 ft 421 kts 102°
2026-05-04 14:12 52.50572 19.05179 23812 ft 413 kts 102°
2026-05-04 14:13 52.50066 19.09793 23247 ft 409 kts 102°
2026-05-04 14:13 52.49560 19.14372 22624 ft 406 kts 102°
2026-05-04 14:13 52.49057 19.18917 22015 ft 403 kts 102°
2026-05-04 14:13 52.48560 19.23376 21423 ft 400 kts 102°
2026-05-04 14:14 52.48056 19.27909 20832 ft 398 kts 102°
2026-05-04 14:14 52.47065 19.36733 19695 ft 394 kts 102°
2026-05-04 14:14 52.46568 19.41135 19153 ft 391 kts 102°
2026-05-04 14:15 52.45580 19.49863 18042 ft 387 kts 102°
2026-05-04 14:15 52.44596 19.58483 16829 ft 381 kts 103°
2026-05-04 14:16 52.43621 19.66976 15655 ft 376 kts 103°
2026-05-04 14:16 52.43136 19.71173 15073 ft 373 kts 103°
2026-05-04 14:17 52.42178 19.79414 13995 ft 368 kts 104°
2026-05-04 14:17 52.41699 19.83530 13418 ft 366 kts 104°
2026-05-04 14:17 52.40743 19.91672 12229 ft 361 kts 104°
2026-05-04 14:18 52.40268 19.95707 11672 ft 359 kts 103°
2026-05-04 14:18 52.39341 20.03584 11034 ft 339 kts 104°
2026-05-04 14:19 52.38476 20.10846 10936 ft 312 kts 104°
2026-05-04 14:19 52.38060 20.14309 10924 ft 310 kts 104°
2026-05-04 14:19 52.37647 20.17741 10947 ft 313 kts 104°
2026-05-04 14:19 52.37229 20.21257 10714 ft 315 kts 103°
2026-05-04 14:20 52.36810 20.24765 10467 ft 311 kts 104°
2026-05-04 14:20 52.36385 20.28202 10212 ft 307 kts 104°
2026-05-04 14:20 52.35979 20.31625 9960 ft 305 kts 103°
2026-05-04 14:21 52.35148 20.38432 9374 ft 305 kts 103°
2026-05-04 14:21 52.34735 20.41822 9087 ft 304 kts 103°
2026-05-04 14:21 52.34327 20.45202 8816 ft 302 kts 103°
2026-05-04 14:21 52.33909 20.48556 8599 ft 300 kts 103°
2026-05-04 14:22 52.33499 20.51896 8375 ft 300 kts 103°
2026-05-04 14:22 52.33089 20.55240 8178 ft 299 kts 103°
2026-05-04 14:22 52.32680 20.58580 7940 ft 298 kts 103°
2026-05-04 14:22 52.32268 20.61894 7686 ft 297 kts 103°
2026-05-04 14:23 52.31451 20.68450 7248 ft 295 kts 103°
2026-05-04 14:23 52.31045 20.71720 7093 ft 292 kts 103°
2026-05-04 14:23 52.30641 20.74902 7060 ft 280 kts 103°
2026-05-04 14:24 52.30258 20.77959 7065 ft 270 kts 103°
2026-05-04 14:24 52.29893 20.80929 7021 ft 262 kts 103°
2026-05-04 14:24 52.29534 20.83811 6981 ft 258 kts 103°
2026-05-04 14:24 52.29168 20.86696 6990 ft 261 kts 103°
2026-05-04 14:25 52.28802 20.89609 7066 ft 262 kts 104°
2026-05-04 14:25 52.28063 20.95427 7066 ft 261 kts 103°
2026-05-04 14:25 52.27690 20.98330 6985 ft 263 kts 103°
2026-05-04 14:26 52.27070 21.01108 6766 ft 258 kts 128°
2026-05-04 14:26 52.25856 21.03143 6562 ft 251 kts 144°
2026-05-04 14:26 52.24482 21.04875 6382 ft 248 kts 147°
2026-05-04 14:26 52.23042 21.06369 6149 ft 243 kts 154°
2026-05-04 14:27 52.21559 21.07678 5930 ft 242 kts 155°
2026-05-04 14:27 52.20078 21.08972 5649 ft 242 kts 155°
2026-05-04 14:27 52.18591 21.10261 5402 ft 242 kts 156°
2026-05-04 14:27 52.17093 21.11511 5189 ft 242 kts 156°
2026-05-04 14:28 52.15598 21.12765 4986 ft 242 kts 155°
2026-05-04 14:28 52.14114 21.14089 4736 ft 243 kts 154°
2026-05-04 14:28 52.12629 21.15405 4467 ft 243 kts 155°
2026-05-04 14:28 52.11138 21.16698 4235 ft 243 kts 155°
2026-05-04 14:29 52.08163 21.19288 3744 ft 243 kts 155°
2026-05-04 14:29 52.05199 21.21919 3223 ft 242 kts 155°
2026-05-04 14:30 52.03753 21.23173 3103 ft 235 kts 155°
2026-05-04 14:30 52.02344 21.24410 3091 ft 225 kts 155°
2026-05-04 14:30 51.99692 21.26326 3102 ft 194 kts 184°
2026-05-04 14:31 51.98507 21.25620 3075 ft 179 kts 227°
2026-05-04 14:31 51.97198 21.22240 3066 ft 178 kts 244°
2026-05-04 14:32 51.97161 21.18324 3056 ft 178 kts 288°
2026-05-04 14:32 51.97670 21.16450 3102 ft 185 kts 294°
2026-05-04 14:32 51.98340 21.14676 3103 ft 186 kts 307°
2026-05-04 14:32 51.99233 21.13133 3108 ft 188 kts 311°
2026-05-04 14:33 52.00156 21.11632 3136 ft 187 kts 312°
2026-05-04 14:33 52.01143 21.10278 3129 ft 190 kts 323°
2026-05-04 14:33 52.02272 21.09274 3162 ft 177 kts 329°
2026-05-04 14:33 52.03292 21.08342 3074 ft 162 kts 325°
2026-05-04 14:34 52.04273 21.07470 2765 ft 158 kts 328°
2026-05-04 14:34 52.05231 21.06649 2538 ft 153 kts 327°
2026-05-04 14:34 52.06160 21.05824 2394 ft 152 kts 327°
2026-05-04 14:34 52.07092 21.05032 2206 ft 150 kts 328°
2026-05-04 14:35 52.07995 21.04218 1999 ft 148 kts 325°
2026-05-04 14:35 52.08911 21.03411 1847 ft 151 kts 328°
2026-05-04 14:35 52.09848 21.02630 1651 ft 150 kts 327°
2026-05-04 14:35 52.10751 21.01808 1439 ft 147 kts 327°
2026-05-04 14:36 52.11650 21.01034 1250 ft 145 kts 328°
2026-05-04 14:36 52.12540 21.00239 1029 ft 151 kts 326°
2026-05-04 14:36 52.13480 20.99418 856 ft 155 kts 328°
2026-05-04 14:36 52.14439 20.98596 663 ft 157 kts 326°
2026-05-04 14:37 52.15386 20.97729 386 ft 154 kts 328°
2026-05-04 14:37 52.16211 20.97034 339 ft 135 kts 324°
2026-05-04 14:37 52.16824 20.96475 335 ft 65 kts 335°
2026-05-04 14:37 52.17139 20.96271 335 ft 41 kts 341°
2026-05-04 14:38 52.17303 20.96254 333 ft 13 kts
2026-05-04 14:38 52.17344 20.96245 336 ft 1 kts 357°
2026-05-04 14:38 52.17353 20.96246 335 ft 2 kts
2026-05-04 14:38 52.17368 20.96254 337 ft 3 kts 21°
2026-05-04 14:39 52.17389 20.96278 334 ft 4 kts 44°
2026-05-04 14:39 52.17405 20.96332 333 ft 6 kts 80°
2026-05-04 14:39 52.17386 20.96398 334 ft 7 kts 137°
2026-05-04 14:40 52.17300 20.96478 337 ft 10 kts 152°
2026-05-04 14:40 52.17213 20.96553 337 ft 12 kts 152°
2026-05-04 14:40 52.17162 20.96596 336 ft 12 kts 149°
2026-05-04 14:40 52.17142 20.96717 336 ft 13 kts 66°
2026-05-04 14:41 52.17146 20.96837 336 ft 10 kts 130°
2026-05-04 14:41 52.17124 20.96933 337 ft 10 kts 70°
2026-05-04 14:41 52.17151 20.97016 334 ft 0 kts 61°